timestamp,wind_dir_avg,wind_spd_max_dir,wind_spd_avg,wind_spd_gust,battery_voltage,lat,long
2020-11-17 00:04:01+00:00,168.0,168.0,14.85,17.18,12.57,47.59359,-54.27349
2020-11-17 00:14:01+00:00,166.0,169.0,15.1,17.54,12.57,47.59359,-54.27349
2020-11-17 00:24:01+00:00,170.0,173.0,16.54,19.61,12.57,47.59359,-54.27349
2020-11-17 00:34:01+00:00,162.0,156.0,14.9,17.74,12.57,47.59359,-54.27349
2020-11-17 00:44:01+00:00,168.0,168.0,16.46,20.25,12.57,47.59359,-54.27349
2020-11-17 00:54:01+00:00,165.0,161.0,16.02,19.6,12.57,47.59359,-54.27349
2020-11-17 01:04:01+00:00,166.0,161.0,16.24,19.86,12.57,47.59359,-54.27349
2020-11-17 01:14:01+00:00,161.0,147.0,17.37,20.58,12.57,47.59359,-54.27349
2020-11-17 01:24:01+00:00,169.0,170.0,16.59,20.21,12.57,47.59359,-54.27349
2020-11-17 01:34:01+00:00,165.0,165.0,15.63,17.7,12.57,47.59359,-54.27349
2020-11-17 01:44:01+00:00,161.0,161.0,16.82,19.81,12.57,47.59359,-54.27349
2020-11-17 01:54:01+00:00,163.0,160.0,15.36,18.64,12.57,47.59359,-54.27349
2020-11-17 02:04:01+00:00,165.0,164.0,18.03,20.4,12.57,47.59359,-54.27349
2020-11-17 02:14:01+00:00,165.0,168.0,17.54,20.23,12.57,47.59359,-54.27349
2020-11-17 02:24:01+00:00,165.0,165.0,20.46,22.64,12.57,47.59359,-54.27349
2020-11-17 02:34:01+00:00,165.0,163.0,18.91,21.8,12.57,47.59359,-54.27349
2020-11-17 02:44:01+00:00,166.0,163.0,21.03,25.33,12.57,47.59359,-54.27349
2020-11-17 02:54:01+00:00,164.0,167.0,20.49,25.09,12.57,47.59359,-54.27349
2020-11-17 03:04:01+00:00,163.0,156.0,19.98,22.8,12.57,47.59359,-54.27349
2020-11-17 03:14:01+00:00,164.0,159.0,20.85,24.95,12.49,47.59359,-54.27349
2020-11-17 03:24:01+00:00,167.0,160.0,19.81,25.2,12.49,47.59359,-54.27349
2020-11-17 03:34:01+00:00,167.0,157.0,18.42,23.11,12.49,47.59359,-54.27349
2020-11-17 03:44:01+00:00,164.0,160.0,19.9,23.18,12.49,47.59359,-54.27349
2020-11-17 03:54:01+00:00,170.0,170.0,19.63,24.0,12.49,47.59359,-54.27349
2020-11-17 04:04:01+00:00,170.0,166.0,17.75,21.73,12.49,47.59359,-54.27349
2020-11-17 04:14:01+00:00,171.0,168.0,22.71,27.68,12.49,47.59359,-54.27349
2020-11-17 04:24:01+00:00,175.0,175.0,21.62,26.79,12.49,47.59359,-54.27349
2020-11-17 04:34:01+00:00,174.0,172.0,18.99,22.63,12.49,47.59359,-54.27349
2020-11-17 04:44:01+00:00,179.0,182.0,18.56,22.37,12.49,47.59359,-54.27349
2020-11-17 04:54:01+00:00,192.0,191.0,16.71,21.5,12.49,47.59359,-54.27349
2020-11-17 05:04:01+00:00,190.0,196.0,18.3,22.92,12.49,47.59359,-54.27349
2020-11-17 05:14:01+00:00,207.0,213.0,18.27,22.0,12.49,47.59359,-54.27349
2020-11-17 05:24:01+00:00,205.0,208.0,17.03,19.76,12.49,47.59359,-54.27349
2020-11-17 05:34:01+00:00,203.0,208.0,18.38,21.57,12.49,47.59359,-54.27349
2020-11-17 05:44:01+00:00,211.0,211.0,13.44,15.33,12.49,47.59359,-54.27349
2020-11-17 05:54:01+00:00,214.0,209.0,12.11,14.77,12.49,47.59359,-54.27349
2020-11-17 06:04:01+00:00,212.0,214.0,10.62,12.24,12.49,47.59359,-54.27349
2020-11-17 06:14:01+00:00,220.0,217.0,9.07,11.39,12.41,47.59359,-54.27349
2020-11-17 06:24:01+00:00,228.0,229.0,7.58,8.88,12.41,47.59359,-54.27349
2020-11-17 06:34:01+00:00,238.0,245.0,8.96,10.38,12.41,47.59359,-54.27349
2020-11-17 06:44:01+00:00,259.0,259.0,9.5,11.32,12.41,47.59359,-54.27349
2020-11-17 06:54:01+00:00,261.0,262.0,7.94,9.59,12.41,47.59359,-54.27349
2020-11-17 07:04:01+00:00,268.0,271.0,7.97,9.53,12.41,47.59359,-54.27349
2020-11-17 07:14:01+00:00,270.0,272.0,7.14,7.87,12.41,47.59359,-54.27349
2020-11-17 07:24:01+00:00,262.0,263.0,7.45,8.2,12.41,47.59359,-54.27349
2020-11-17 07:34:01+00:00,258.0,263.0,6.89,7.77,12.41,47.59359,-54.27349
2020-11-17 07:44:01+00:00,259.0,259.0,6.5,7.5,12.41,47.59359,-54.27349
2020-11-17 07:54:01+00:00,264.0,267.0,6.21,6.85,12.41,47.59359,-54.27349
2020-11-17 08:04:01+00:00,265.0,268.0,6.09,6.93,12.41,47.59359,-54.27349
2020-11-17 08:14:01+00:00,264.0,268.0,8.17,9.57,12.41,47.59359,-54.27349
2020-11-17 08:24:01+00:00,263.0,264.0,7.28,8.66,12.41,47.59359,-54.27349
2020-11-17 08:34:01+00:00,253.0,255.0,7.02,8.18,12.41,47.59359,-54.27349
2020-11-17 08:44:01+00:00,231.0,235.0,6.91,8.23,12.41,47.59359,-54.27349
2020-11-17 08:54:01+00:00,245.0,243.0,7.31,8.06,12.41,47.59359,-54.27349
2020-11-17 09:04:01+00:00,247.0,244.0,6.42,7.26,12.41,47.59359,-54.27349
2020-11-17 09:14:01+00:00,241.0,242.0,6.71,7.41,12.41,47.59359,-54.27349
2020-11-17 09:24:01+00:00,240.0,240.0,7.25,8.05,12.41,47.59359,-54.27349
2020-11-17 09:34:01+00:00,239.0,239.0,7.79,8.54,12.41,47.59359,-54.27349
2020-11-17 09:44:01+00:00,243.0,242.0,7.81,8.58,12.41,47.59359,-54.27349
2020-11-17 09:54:01+00:00,250.0,246.0,6.27,7.07,12.41,47.59359,-54.27349
2020-11-17 10:04:01+00:00,244.0,247.0,6.35,6.73,12.41,47.59359,-54.27349
2020-11-17 10:14:01+00:00,240.0,241.0,6.72,7.39,12.41,47.59359,-54.27349
2020-11-17 10:24:01+00:00,241.0,242.0,6.21,6.79,12.41,47.59359,-54.27349
2020-11-17 10:34:01+00:00,237.0,237.0,6.42,7.6,12.41,47.59359,-54.27349
2020-11-17 10:44:01+00:00,231.0,230.0,5.68,6.71,12.41,47.59359,-54.27349
2020-11-17 10:54:01+00:00,241.0,242.0,6.64,7.36,12.41,47.59359,-54.27349
2020-11-17 11:04:01+00:00,235.0,234.0,6.61,7.0,12.41,47.59359,-54.27349
2020-11-17 11:14:01+00:00,233.0,231.0,5.69,6.7,12.41,47.59359,-54.27349
2020-11-17 11:24:01+00:00,229.0,231.0,6.44,7.28,12.41,47.59359,-54.27349
2020-11-17 11:34:01+00:00,231.0,227.0,6.04,7.09,12.41,47.59359,-54.27349
2020-11-17 11:44:01+00:00,229.0,228.0,6.97,8.4,12.41,47.59359,-54.27349
2020-11-17 11:54:01+00:00,233.0,234.0,7.19,7.91,12.41,47.59359,-54.27349
2020-11-17 12:04:01+00:00,230.0,231.0,6.93,8.9,12.41,47.59359,-54.27349
2020-11-17 12:14:01+00:00,234.0,225.0,7.38,9.48,12.49,47.59359,-54.27349
2020-11-17 12:24:01+00:00,240.0,237.0,7.3,8.42,12.49,47.59359,-54.27349
2020-11-17 12:34:01+00:00,239.0,239.0,7.32,8.82,12.49,47.59359,-54.27349
2020-11-17 12:44:01+00:00,247.0,245.0,8.33,9.78,12.49,47.59359,-54.27349
2020-11-17 12:54:01+00:00,255.0,254.0,7.42,8.65,12.49,47.59359,-54.27349
2020-11-17 13:04:01+00:00,255.0,254.0,9.08,10.8,12.49,47.59359,-54.27349
2020-11-17 13:14:01+00:00,254.0,254.0,7.09,7.76,14.32,47.59359,-54.27349
2020-11-17 13:24:01+00:00,249.0,244.0,7.0,8.52,14.32,47.59359,-54.27349
2020-11-17 13:34:01+00:00,241.0,242.0,5.69,6.86,14.32,47.59359,-54.27349
2020-11-17 13:44:01+00:00,244.0,242.0,6.22,6.92,14.32,47.59359,-54.27349
2020-11-17 13:54:01+00:00,233.0,233.0,5.75,6.45,14.32,47.59359,-54.27349
2020-11-17 14:04:01+00:00,231.0,230.0,4.96,7.13,14.32,47.59359,-54.27349
2020-11-17 14:14:01+00:00,255.0,254.0,9.42,11.57,13.68,47.59359,-54.27349
2020-11-17 14:24:01+00:00,243.0,239.0,8.24,9.6,13.68,47.59359,-54.27349
2020-11-17 14:34:01+00:00,250.0,253.0,8.43,9.82,13.68,47.59359,-54.27349
2020-11-17 14:44:01+00:00,248.0,251.0,8.2,9.6,13.68,47.59359,-54.27349
2020-11-17 14:54:01+00:00,248.0,251.0,8.75,10.41,13.68,47.59359,-54.27349
2020-11-17 15:04:01+00:00,246.0,246.0,9.9,11.14,13.68,47.59359,-54.27349
2020-11-17 15:14:01+00:00,247.0,245.0,9.05,10.17,14.32,47.59359,-54.27349
2020-11-17 15:24:01+00:00,242.0,236.0,9.92,12.16,14.32,47.59359,-54.27349
2020-11-17 15:34:01+00:00,251.0,249.0,11.68,12.82,14.32,47.59359,-54.27349
2020-11-17 15:44:01+00:00,256.0,256.0,9.43,10.92,14.32,47.59359,-54.27349
2020-11-17 15:54:01+00:00,256.0,251.0,7.89,9.38,14.32,47.59359,-54.27349
2020-11-17 16:04:01+00:00,260.0,256.0,10.8,13.24,14.32,47.59359,-54.27349
2020-11-17 16:14:01+00:00,257.0,265.0,9.11,12.41,13.68,47.59359,-54.27349
2020-11-17 16:24:01+00:00,248.0,251.0,8.78,9.71,13.68,47.59359,-54.27349
2020-11-17 16:34:01+00:00,239.0,238.0,10.75,12.3,13.68,47.59359,-54.27349
2020-11-17 16:44:01+00:00,259.0,259.0,10.21,11.31,13.68,47.59359,-54.27349
2020-11-17 16:54:01+00:00,256.0,254.0,8.9,10.39,13.68,47.59359,-54.27349
2020-11-17 17:04:01+00:00,259.0,265.0,10.5,11.37,13.68,47.59359,-54.27349
2020-11-17 17:14:01+00:00,244.0,240.0,13.07,15.19,13.53,47.59359,-54.27349
2020-11-17 17:24:01+00:00,246.0,248.0,11.82,13.45,13.53,47.59359,-54.27349
2020-11-17 17:34:01+00:00,245.0,246.0,11.57,13.69,13.53,47.59359,-54.27349
2020-11-17 17:44:01+00:00,252.0,251.0,13.71,16.06,13.53,47.59359,-54.27349
2020-11-17 17:54:01+00:00,254.0,250.0,10.72,12.12,13.53,47.59359,-54.27349
2020-11-17 18:04:01+00:00,251.0,252.0,11.79,14.1,13.53,47.59359,-54.27349
2020-11-17 18:14:01+00:00,251.0,250.0,11.74,14.2,14.0,47.59359,-54.27349
2020-11-17 18:24:01+00:00,254.0,256.0,12.33,14.24,14.0,47.59359,-54.27349
2020-11-17 18:34:01+00:00,258.0,255.0,12.58,14.64,14.0,47.59359,-54.27349
2020-11-17 18:44:01+00:00,257.0,260.0,10.29,11.58,14.0,47.59359,-54.27349
2020-11-17 18:54:01+00:00,258.0,266.0,8.08,9.92,14.0,47.59359,-54.27349
2020-11-17 19:04:01+00:00,270.0,259.0,4.82,5.31,14.0,47.59359,-54.27349
2020-11-17 19:14:01+00:00,244.0,242.0,7.56,8.27,13.76,47.59359,-54.27349
2020-11-17 19:24:01+00:00,249.0,250.0,7.81,8.83,13.76,47.59359,-54.27349
2020-11-17 19:34:01+00:00,243.0,248.0,7.84,8.49,13.76,47.59359,-54.27349
2020-11-17 19:44:01+00:00,241.0,240.0,8.73,10.66,13.76,47.59359,-54.27349
2020-11-17 19:54:01+00:00,245.0,250.0,9.78,11.17,13.76,47.59359,-54.27349
2020-11-17 20:04:01+00:00,257.0,258.0,8.69,10.47,13.76,47.59359,-54.27349
2020-11-17 20:14:01+00:00,254.0,259.0,7.42,8.6,13.05,47.59359,-54.27349
2020-11-17 20:24:01+00:00,254.0,259.0,6.45,7.39,13.05,47.59359,-54.27349
2020-11-17 20:34:01+00:00,257.0,256.0,7.08,7.96,13.05,47.59359,-54.27349
2020-11-17 20:44:01+00:00,252.0,253.0,5.56,6.16,13.05,47.59359,-54.27349
2020-11-17 20:54:01+00:00,250.0,247.0,4.88,5.63,13.05,47.59359,-54.27349
2020-11-17 21:04:01+00:00,241.0,238.0,4.79,5.54,13.05,47.59359,-54.27349
2020-11-17 21:14:01+00:00,239.0,239.0,5.57,6.2,12.73,47.59359,-54.27349
2020-11-17 21:24:01+00:00,246.0,247.0,5.77,6.75,12.73,47.59359,-54.27349
2020-11-17 21:34:01+00:00,250.0,257.0,5.03,5.74,12.73,47.59359,-54.27349
2020-11-17 21:44:01+00:00,241.0,244.0,4.3,4.62,12.73,47.59359,-54.27349
2020-11-17 21:54:01+00:00,232.0,234.0,4.18,4.78,12.73,47.59359,-54.27349
2020-11-17 22:04:01+00:00,232.0,232.0,3.43,4.03,12.73,47.59359,-54.27349
2020-11-17 22:14:01+00:00,222.0,220.0,5.69,6.22,12.65,47.59359,-54.27349
2020-11-17 22:24:01+00:00,227.0,230.0,6.44,7.04,12.65,47.59359,-54.27349
2020-11-17 22:34:01+00:00,232.0,232.0,5.88,6.69,12.65,47.59359,-54.27349
2020-11-17 22:44:01+00:00,233.0,237.0,5.65,6.34,12.65,47.59359,-54.27349
2020-11-17 22:54:01+00:00,242.0,238.0,4.93,5.41,12.65,47.59359,-54.27349
2020-11-17 23:04:01+00:00,240.0,247.0,4.13,4.76,12.65,47.59359,-54.27349
2020-11-17 23:14:01+00:00,232.0,229.0,5.19,5.94,12.65,47.59359,-54.27349
2020-11-17 23:24:01+00:00,233.0,238.0,5.14,6.27,12.65,47.59359,-54.27349
2020-11-17 23:34:01+00:00,231.0,232.0,6.12,7.1,12.65,47.59359,-54.27349
2020-11-17 23:44:01+00:00,224.0,227.0,5.97,6.6,12.65,47.59359,-54.27349
2020-11-17 23:54:01+00:00,219.0,221.0,6.62,7.77,12.65,47.59359,-54.27349
